Location: Lombard
(41.8800°N, 88.0080°W)
Time: 12:17:30
(UTC-05:00)

A-11 Canister half - Pass Details

Date: 01 February 2023
Orbit: 1512 x 1687 km, 47.2° (Epoch: 20 March)

Event Time Altitude Azimuth Distance (km) Brightness Sun altitude
Rises 13:03:32 0° 260° (W) 4,809 11.9 29.6°
Reaches altitude 10° 13:06:43 10° 263° (W) 3,801 11.5 29.4°
Maximum altitude 13:16:19 70° 347° (NNW) 1,639 9.4 28.9°
Drops below altitude 10° 13:25:37 10° 71° (ENE) 3,689 10.7 28.3°
Sets 13:28:40 0° 74° (ENE) 4,662 11.2 28.1°
